Time,TemperatureF,DewpointF,PressureIn,WindDirection,WindDirectionDegrees,WindSpeedMPH,WindSpeedGustMPH,Humidity,HourlyPrecipIn,Conditions,Clouds,dailyrainin,SoftwareType,DateUTC
2013-12-07 00:12:00,8.0,4.0,-100.00,NW,315,11.0,16.0,85,-99.99,,,-99.99,,2013-12-07 08:12:00,
2013-12-07 01:43:00,7.0,3.0,-100.00,NW,315,7.0,17.0,85,-99.99,,,-99.99,,2013-12-07 09:43:00,
2013-12-07 03:12:00,6.0,2.0,-100.00,NW,315,12.0,21.0,85,-99.99,,,-99.99,,2013-12-07 11:12:00,
2013-12-07 03:22:00,6.0,2.0,-100.00,North,0,12.0,20.0,85,-99.99,,,-99.99,,2013-12-07 11:22:00,
2013-12-07 03:32:00,6.0,2.0,-100.00,North,0,12.0,20.0,85,-99.99,,,-99.99,,2013-12-07 11:32:00,
2013-12-07 04:42:00,5.0,1.0,-100.00,NW,315,9.0,19.0,85,-99.99,,,-99.99,,2013-12-07 12:42:00,
2013-12-07 05:42:00,4.0,0.0,-100.00,NW,315,10.0,19.0,84,-99.99,,,-99.99,,2013-12-07 13:42:00,
2013-12-07 06:11:00,4.0,0.0,-100.00,NW,315,13.0,21.0,84,-99.99,,,-99.99,,2013-12-07 14:11:00,
2013-12-07 06:52:00,4.0,0.0,-100.00,NW,315,12.0,18.0,84,-99.99,,,-99.99,,2013-12-07 14:52:00,
2013-12-07 07:11:00,3.0,-1.0,-100.00,NW,315,8.0,19.0,84,-99.99,,,-99.99,,2013-12-07 15:11:00,
2013-12-07 07:21:00,3.0,0.0,-100.00,NW,315,12.0,19.0,84,-99.99,,,-99.99,,2013-12-07 15:21:00,
2013-12-07 07:43:00,3.0,-1.0,-100.00,NW,315,12.0,21.0,84,-99.99,,,-99.99,,2013-12-07 15:43:00,
2013-12-07 08:42:00,2.0,-1.0,-100.00,NW,315,9.0,18.0,84,-99.99,,,-99.99,,2013-12-07 16:42:00,
2013-12-07 11:11:00,5.0,-2.0,-100.00,North,0,9.0,15.0,75,-99.99,,,-99.99,,2013-12-07 19:11:00,
2013-12-07 11:42:00,5.0,-1.0,-100.00,NW,315,9.0,16.0,74,-99.99,,,-99.99,,2013-12-07 19:42:00,
2013-12-07 13:11:00,5.0,-4.0,-100.00,NW,315,9.0,16.0,63,-99.99,,,-99.99,,2013-12-07 21:11:00,
2013-12-07 13:43:00,6.0,-4.0,-100.00,North,0,4.0,12.0,63,-99.99,,,-99.99,,2013-12-07 21:43:00,
2013-12-07 14:42:00,6.0,-4.0,-100.00,NW,315,6.0,11.0,61,-99.99,,,-99.99,,2013-12-07 22:42:00,
2013-12-07 15:52:00,6.0,-5.0,-100.00,North,0,6.0,7.0,61,-99.99,,,-99.99,,2013-12-07 23:52:00,
2013-12-07 16:02:00,6.0,-5.0,-100.00,North,0,6.0,7.0,61,-99.99,,,-99.99,,2013-12-08 00:02:00,
2013-12-07 16:22:00,5.0,-4.0,-100.00,North,0,4.0,6.0,63,-99.99,,,-99.99,,2013-12-08 00:22:00,
2013-12-07 16:42:00,4.0,-5.0,-100.00,North,0,4.0,6.0,63,-99.99,,,-99.99,,2013-12-08 00:42:00,
2013-12-07 18:12:00,1.0,-6.0,-100.00,SW,225,0.0,1.0,72,-99.99,,,-99.99,,2013-12-08 02:12:00,
2013-12-07 18:43:00,0.0,-6.0,-100.00,South,180,2.0,3.0,75,-99.99,,,-99.99,,2013-12-08 02:43:00,
2013-12-07 20:02:00,-999.0,-99.9,-100.00,South,180,6.0,8.0,-999,-99.99,,,-99.99,,2013-12-08 04:02:00,
2013-12-07 20:43:00,-5.0,-9.0,-100.00,South,180,7.0,9.0,80,-99.99,,,-99.99,,2013-12-08 04:43:00,
2013-12-07 21:12:00,-5.0,-10.0,-100.00,South,180,6.0,8.0,80,-99.99,,,-99.99,,2013-12-08 05:12:00,
2013-12-07 21:43:00,-5.0,-10.0,-100.00,South,180,7.0,9.0,80,-99.99,,,-99.99,,2013-12-08 05:43:00,
2013-12-07 22:12:00,-6.0,-11.0,-100.00,South,180,8.0,9.0,80,-99.99,,,-99.99,,2013-12-08 06:12:00,
2013-12-07 22:42:00,-5.0,-10.0,-100.00,South,180,6.0,11.0,80,-99.99,,,-99.99,,2013-12-08 06:42:00,
2013-12-07 23:12:00,-5.0,-10.0,-100.00,South,180,7.0,9.0,80,-99.99,,,-99.99,,2013-12-08 07:12:00,
2013-12-07 23:42:00,-5.0,-10.0,-100.00,SW,225,7.0,10.0,79,-99.99,,,-99.99,,2013-12-08 07:42:00,